This demonstration page uses our WeatherBlox Daily Observations layout. Learn more.

Left ArrowRight Arrow

38.20091, -84.87328

Hourly Observations for February 2, 2019

Temp ( °F °C ) Dew Point ( °F °C ) Humidity (%) Winds ( mph kmh ) Pressure ( in mb ) Visibility ( mi km ) Precip ( " mm )
12:53 am 00:53 Mostly Cloudy with Fog 32 0 31 -0.6 96 96 SSE 6 9 30.32 1027 0 0 0.00 0.00
1:53 am 01:53 Mostly Cloudy with Freezing Fog 31 -0.6 31 -0.6 100 100 S 5 7 30.32 1027 0 0 0.00 0.00
2:53 am 02:53 Mostly Cloudy with Freezing Fog 31 -0.6 30 -1.1 96 96 Calm 30.31 1026 0 0 0.00 0.00
3:53 am 03:53 Mostly Cloudy with Freezing Fog 30 -1.1 29 -1.7 96 96 SSE 5 7 30.30 1026 0 0 0.00 0.00
4:53 am 04:53 Mostly Cloudy with Freezing Fog 30 -1.1 29 -1.7 96 96 ESE 5 7 30.29 1026 0 0 0.00 0.00
5:53 am 05:53 Mostly Cloudy with Freezing Fog 29 -1.7 28 -2.2 96 96 SE 3 6 30.28 1026 0 0 0.00 0.00
6:53 am 06:53 Mostly Cloudy with Freezing Fog 29 -1.7 28 -2.2 96 96 SE 6 9 30.28 1025 0 0 0.00 0.00
7:53 am 07:53 Mostly Cloudy with Freezing Fog 29 -1.7 28 -2.2 96 96 E 3 6 30.29 1026 5 8 0.00 0.00
8:53 am 08:53 Mostly Cloudy with Freezing Fog 30 -1.1 28 -2.2 92 92 SE 3 6 30.29 1026 5 8 0.00 0.00
9:53 am 09:53 Mostly Cloudy with Freezing Fog 31 -0.6 30 -1.1 96 96 Calm 30.28 1026 5 8 0.00 0.00
10:53 am 10:53 Cloudy with Mist and Fog 32 0 30 -1.1 92 92 undefined N/A 30.28 1025 1 1 0.00 0.00
10:56 am 10:56 Cloudy with Mist and Fog 32 0 31 -0.6 96 96 Calm 30.29 1026 1 2 0.00 0.00
11:04 am 11:04 Cloudy with Mist and Fog 33 0.6 31 -0.6 92 92 Calm 30.29 1026 3 5 0.00 0.00
11:42 am 11:42 Cloudy with Mist and Fog 33 0.6 33 0.6 100 100 Calm 30.28 1025 6 10 0.00 0.00
11:53 am 11:53 Cloudy 34 1.1 34 1.1 100 100 VRB 3 6 30.26 1025 7 11 0.00 0.00
12:36 pm 12:36 Cloudy 41 5 37 2.8 86 86 VRB 3 6 30.25 1024 10 16 0.00 0.00
12:53 pm 12:53 Cloudy 42 5.6 36 2.2 79 79 Calm 30.22 1024 10 16 0.00 0.00
1:53 pm 13:53 Partly Cloudy 50 10 40 4.4 68 68 Calm 30.18 1022 10 16 0.00 0.00
2:53 pm 14:53 Sunny 55 12.8 42 5.6 62 62 WSW 5 7 30.16 1021 10 16 0.00 0.00
3:53 pm 15:53 Sunny 57 13.9 42 5.6 58 58 SW 14 22 30.14 1021 10 16 0.00 0.00
4:53 pm 16:53 Sunny 57 13.9 41 5 55 55 WSW 8 13 30.13 1020 10 16 0.00 0.00
5:53 pm 17:53 Sunny 52 11.1 40 4.4 64 64 Calm 30.12 1020 10 16 0.00 0.00
6:53 pm 18:53 Clear 44 6.7 37 2.8 76 76 S 3 6 30.12 1020 10 16 0.00 0.00
7:53 pm 19:53 Cloudy 43 6.1 38 3.3 82 82 Calm 30.13 1020 10 16 0.00 0.00
8:53 pm 20:53 Partly Cloudy 44 6.7 36 2.2 73 73 S 6 9 30.12 1020 10 16 0.00 0.00
9:53 pm 21:53 Mostly Clear 41 5 34 1.1 76 76 S 5 7 30.11 1020 10 16 0.00 0.00
10:53 pm 22:53 Cloudy 40 4.4 34 1.1 79 79 Calm 30.11 1020 10 16 0.00 0.00
11:53 pm 23:53 Cloudy 39 3.9 34 1.1 82 82 Calm 30.10 1019 10 16 0.00 0.00

Powered by AerisWeather